Regional Weather Roundup
Issued by NWS

Home | Current Version | Previous Version | Text Only | Print | Product List | Glossary On
Versions: 1 2 3 4 5 6 7 8 9 10 11 12 13 14 15 16 17 18 19 20 21 22 23 24 25 26 27 28 29 30 31 32 33 34 35 36 37 38 39 40 41 42 43 44 45 46 47 48 49 50
000
ASUS46 KSEW 200010
RWRWA

WASHINGTON REGIONAL WEATHER ROUNDUP
NATIONAL WEATHER SERVICE SEATTLE WA
500 PM PDT FRI SEP 19 2014

NOTE:"FAIR" INDICATES FEW OR NO CLOUDS BELOW 12,000 FEET WITH NO
SIGNIFICANT WEATHER AND/OR OBSTRUCTIONS TO VISIBILITY.

WAZ505-507>509-200100-
SEATTLE, TACOMA, EVERETT, AND VICINITY

CITY           SKY/WX    TMP DP  RH WIND       PRES   REMARKS
EVERETT        SUNNY     71  55  56 NW7       30.09S
6HR MIN TEMP:  65; 6HR MAX TEMP:  72;

BOEING FIELD   MOSUNNY   77  56  48 W6        30.06S
6HR MIN TEMP:  70; 6HR MAX TEMP:  78;

RENTON         SUNNY     76  58  53 NW5       30.05F
6HR MIN TEMP:  70; 6HR MAX TEMP:  77;

SEATAC AIRPORT MOSUNNY   73  56  54 S5        30.08F
6HR MIN TEMP:  68; 6HR MAX TEMP:  75;

JBLM-MCCHORD   SUNNY     75  59  57 W10       30.07S
6HR MIN TEMP:  69; 6HR MAX TEMP:  77;

PUYALLUP       NOT AVBL
JBLM-FT LEWIS  SUNNY     74  59  58 W10       30.06F
6HR MIN TEMP:  68; 6HR MAX TEMP:  77;

TACOMA NARROWS SUNNY     73  57  57 W7        30.07F
6HR MIN TEMP:  64; 6HR MAX TEMP:  76;

$$

WAZ001-503-506-510-514-515-200100-
NORTH INTERIOR

CITY           SKY/WX    TMP DP  RH WIND       PRES   REMARKS
BELLINGHAM     CLOUDY    67  58  72 S3        30.09F
6HR MIN TEMP:  62; 6HR MAX TEMP:  67; 6HR PCP: TRACE;

FRIDAY HARBOR  CLOUDY    67  58  72 SE3       30.10S
6HR MIN TEMP:  62; 6HR MAX TEMP:  69;

EASTSOUND      PTSUNNY   66  59  77 CALM      30.07F
PORT ANGELES     N/A     66  56  70 N3        30.11R
6HR MIN TEMP:  60; 6HR MAX TEMP:  69;

NAS WHIDBEY    PTSUNNY   71  58  63 N8        30.10S
6HR MIN TEMP:  65; 6HR MAX TEMP:  73; 6HR PCP: TRACE;

BURLINGTON     CLOUDY    70  61  73 NE5       30.11S
$$

WAZ020-022-039-040-504-511-512-200100-
SOUTHWEST INTERIOR

CITY           SKY/WX    TMP DP  RH WIND       PRES   REMARKS
SHELTON        MOSUNNY   67  58  72 SW13      30.06F
6HR MIN TEMP:  66; 6HR MAX TEMP:  71;

OLYMPIA        PTSUNNY   72  58  61 NW8       30.07S
6HR MIN TEMP:  66; 6HR MAX TEMP:  81;

CHEHALIS       FAIR      77  61  57 NW8G14    30.07R
KELSO          SUNNY     79  57  47 W3        30.07F
6HR MIN TEMP:  70; 6HR MAX TEMP:  79;

VANCOUVER      SUNNY     81  54  39 NW9       30.02F
6HR MIN TEMP:  70; 6HR MAX TEMP:  81;

SCAPPOOSE, OR  SUNNY     81  55  40 N13       30.02S
6HR MIN TEMP:  71; 6HR MAX TEMP:  83;

PORTLAND, OR   MOSUNNY   81  57  43 NW6       30.02F
6HR MIN TEMP:  70; 6HR MAX TEMP:  82;

$$

WAZ021-516-517-200100-
WASHINGTON COAST

CITY           SKY/WX    TMP DP  RH WIND       PRES   REMARKS
FORKS          PTSUNNY   64  60  87 SW6       30.11R
6HR MIN TEMP:  61; 6HR MAX TEMP:  68; 6HR PCP:  0.02;

HOQUIAM        PTSUNNY   64  62  93 SW7       30.10F
6HR MIN TEMP:  62; 6HR MAX TEMP:  64; 6HR PCP:  0.02;

ASTORIA, OR    SUNNY     70  60  70 NW10      30.08S
6HR MIN TEMP:  67; 6HR MAX TEMP:  73;

$$

WAZ019-023-024-040-518-519-200100-
CASCADE MOUNTAINS AND COLUMBIA GORGE

CITY           SKY/WX    TMP DP  RH WIND       PRES   REMARKS
STAMPEDE PASS  NOT AVBL
TROUTDALE, OR  SUNNY     82  52  35 VRB5      30.00F
6HR MIN TEMP:  71; 6HR MAX TEMP:  82;

THE DALLES, OR SUNNY     85  53  33 NW13      29.94S
6HR MIN TEMP:  75; 6HR MAX TEMP:  87;

$$

WAZ026-027-041>044-520-521-200100-
EAST SLOPES

CITY           SKY/WX    TMP DP  RH WIND       PRES   REMARKS
OMAK           MOSUNNY   83  45  26 S10       29.95S
6HR MIN TEMP:  73; 6HR MAX TEMP:  84;

WENATCHEE      SUNNY     83  47  28 NW9       29.97S
6HR MIN TEMP:  75; 6HR MAX TEMP:  83;

ELLENSBURG     SUNNY     79  51  37 NW26G33   30.00S
6HR MIN TEMP:  74; 6HR MAX TEMP:  82;

YAKIMA         SUNNY     83  48  29 E5        29.97F
6HR MIN TEMP:  73; 6HR MAX TEMP:  84;

$$

WAZ028-034-035-200100-
COLUMBIA BASIN

CITY           SKY/WX    TMP DP  RH WIND       PRES   REMARKS
EPHRATA        SUNNY     84  46  26 W7        29.97S
6HR MIN TEMP:  75; 6HR MAX TEMP:  84;

MOSES LAKE     SUNNY     83  47  28 S12       29.98S
6HR MIN TEMP:  74; 6HR MAX TEMP:  84;

PASCO          SUNNY     84  49  29 W5        29.95F
6HR MIN TEMP:  75; 6HR MAX TEMP:  85;

HERMISTON, OR  SUNNY     85  48  27 NW5       29.96F
6HR MIN TEMP:  75; 6HR MAX TEMP:  85;

$$

WAZ036>038-200100-
NORTHEAST WASHINGTON

CITY           SKY/WX    TMP DP  RH WIND       PRES   REMARKS
SPOKANE GEIGER PTSUNNY   75  46  35 S13       30.03F
6HR MIN TEMP:  67; 6HR MAX TEMP:  76;

SPOKANE FELTS  MOSUNNY   77  45  32 SW10      30.02F
6HR MIN TEMP:  68; 6HR MAX TEMP:  78;

FAIRCHILD AFB  MOSUNNY   75  46  36 SW8       30.04F
6HR MIN TEMP:  67; 6HR MAX TEMP:  76;

COEURDALENE,ID MOSUNNY   73  46  38 SW10      30.03F
6HR MIN TEMP:  66; 6HR MAX TEMP:  75;

DEER PARK      PTSUNNY   76  46  34 SW10      30.02F
6HR MIN TEMP:  66; 6HR MAX TEMP:  78;

$$

WAZ029>033-200100-
SOUTHEAST WASHINGTON

CITY           SKY/WX    TMP DP  RH WIND       PRES   REMARKS
PULLMAN        MOSUNNY   73  45  36 NW6       30.08F
6HR MIN TEMP:  67; 6HR MAX TEMP:  74;

LEWISTON, ID   PTSUNNY   79  48  33 CALM      30.01F
6HR MIN TEMP:  76; 6HR MAX TEMP:  82;

WALLA WALLA    SUNNY     82  46  28 SW7       30.01F
6HR MIN TEMP:  73; 6HR MAX TEMP:  83;

PENDLETON, OR  SUNNY     82  45  27 NW6       30.00S
6HR MIN TEMP:  72; 6HR MAX TEMP:  82;

$$


USA.gov is the U.S. government's official web portal to all federal, state and local government web resources and services.